QLK1260 YBCG-YCFS

Flight info

Callsign QLK1260
Flight time N/A
Altitude 17000
Route CG7/14 HASS DCT ELDUX DCT RER/N0329F160
Aircraft A319/M-SDE3FGHIRWY/LB1

Departure

Time N/A
Airport Gold Coast Airport (YBCG)

Arrival

Time 2026-05-06 13:46
Airport Coffs Harbour Airport (YCFS)
Time Latitude Longitude Altitude Speed Heading
2026-05-06 13:38 -30.31270 153.02529 7894 ft 270 kts 242°
2026-05-06 13:38 -30.32215 153.00675 7401 ft 264 kts 242°
2026-05-06 13:39 -30.33139 152.98861 6919 ft 259 kts 242°
2026-05-06 13:39 -30.34043 152.97070 6439 ft 255 kts 242°
2026-05-06 13:39 -30.34926 152.95306 5925 ft 250 kts 242°
2026-05-06 13:39 -30.35788 152.93583 5435 ft 246 kts 241°
2026-05-06 13:40 -30.36942 152.92139 4944 ft 247 kts 214°
2026-05-06 13:40 -30.38554 152.91544 4442 ft 250 kts 185°
2026-05-06 13:40 -30.40239 152.91953 3942 ft 251 kts 153°
2026-05-06 13:40 -30.41669 152.93070 3644 ft 246 kts 144°
2026-05-06 13:41 -30.43009 152.94267 3397 ft 241 kts 140°
2026-05-06 13:41 -30.43949 152.95822 3149 ft 236 kts 107°
2026-05-06 13:41 -30.44036 152.97670 2895 ft 228 kts 77°
2026-05-06 13:41 -30.43770 152.99469 2641 ft 226 kts 85°
2026-05-06 13:42 -30.43643 153.01257 2466 ft 217 kts 72°
2026-05-06 13:42 -30.43001 153.02669 2538 ft 180 kts 44°
2026-05-06 13:42 -30.42130 153.03508 2511 ft 150 kts 30°
2026-05-06 13:42 -30.41313 153.04156 2382 ft 137 kts 30°
2026-05-06 13:43 -30.40560 153.04807 2236 ft 133 kts 32°
2026-05-06 13:43 -30.39828 153.05450 2034 ft 132 kts 31°
2026-05-06 13:43 -30.39083 153.06067 1724 ft 132 kts 30°
2026-05-06 13:43 -30.38339 153.06657 1442 ft 131 kts 30°
2026-05-06 13:44 -30.37579 153.07223 1140 ft 130 kts 29°
2026-05-06 13:44 -30.36833 153.07824 834 ft 131 kts 34°
2026-05-06 13:44 -30.36116 153.08452 661 ft 127 kts 35°
2026-05-06 13:44 -30.35427 153.09101 469 ft 128 kts 35°
2026-05-06 13:45 -30.34741 153.09756 299 ft 127 kts 35°
2026-05-06 13:45 -30.33423 153.11066 26 ft 114 kts 39°
2026-05-06 13:45 -30.32940 153.11542 27 ft 67 kts 40°
2026-05-06 13:46 -30.32657 153.11826 27 ft 32 kts 41°
2026-05-06 13:46 -30.32558 153.11919 27 ft 10 kts 20°
2026-05-06 13:46 -30.32491 153.11856 27 ft 19 kts 308°
2026-05-06 13:46 -30.32393 153.11724 27 ft 25 kts 311°
2026-05-06 13:47 -30.32399 153.11620 27 ft 9 kts 219°
2026-05-06 13:47 -30.32434 153.11575 27 ft 7 kts 258°
2026-05-06 13:47 -30.32402 153.11552 27 ft 0 kts 339°
2026-05-06 13:47 -30.32395 153.11550 27 ft 1 kts 341°
2026-05-06 13:48 -30.32393 153.11549 27 ft 0 kts 341°